Location: Иркутск
(52.2896°N, 104.2806°E)
Time: 16:19:44
(UTC+08:00)

ISS - Visible Passes

Search period start: 22 February 2024 00:00
Search period end: 03 March 2024 00:00
Orbit: 415 x 417 km, 51.6° (Epoch: 21 February)

Date Brightness Start Highest point End Pass type
(mag) Time Alt. Az. Time Alt. Az. Time Alt. Az.
22 Feb -2.4 06:07:43 28° S 06:08:37 33° SSE 06:11:41 10° E visible
23 Feb -1.5 05:21:08 21° ESE 05:21:08 21° ESE 05:22:57 10° E visible
23 Feb -3.6 06:54:01 16° WSW 06:56:32 67° SSE 06:59:53 10° E visible
24 Feb -3.4 06:07:20 46° SSW 06:07:56 54° SSE 06:11:15 10° E visible
25 Feb -1.9 05:20:34 29° ESE 05:20:34 29° ESE 05:22:33 10° E visible
25 Feb -3.8 06:53:27 17° W 06:55:56 81° S 06:59:17 10° E visible
26 Feb -0.3 04:33:44 10° E 04:33:44 10° E 04:33:47 10° E visible
26 Feb -3.8 06:06:37 55° WSW 06:07:14 75° S 06:10:36 10° E visible
27 Feb -2.2 05:19:44 35° E 05:19:44 35° E 05:21:52 10° E visible
27 Feb -3.8 06:52:37 16° W 06:55:12 78° S 06:58:34 10° E visible
28 Feb -0.4 04:32:50 12° E 04:32:50 12° E 04:33:05 10° E visible
28 Feb -3.9 06:05:42 52° W 06:06:26 82° S 06:09:48 10° E visible
29 Feb -2.4 05:18:45 39° E 05:18:45 39° E 05:21:00 10° E visible
29 Feb -3.6 06:51:37 15° W 06:54:17 60° SSW 06:57:36 10° ESE visible
01 Mar -0.5 04:31:48 13° E 04:31:48 13° E 04:32:10 10° E visible
01 Mar -3.8 06:04:40 47° W 06:05:29 71° S 06:08:49 10° ESE visible
02 Mar -2.5 05:17:43 40° ESE 05:17:43 40° ESE 05:19:59 10° E visible
02 Mar -3.0 06:50:35 14° W 06:53:09 37° SSW 06:56:17 10° SE visible
